Regional Weather Roundup
Issued by NWS Cleveland, OH

Home | Current Version | Previous Version | Text Only | Print | Product List | Glossary Off
Versions: 1 2 3 4 5 6 7 8 9 10 11 12 13 14 15 16 17 18 19 20 21 22 23 24 25 26 27 28 29 30 31 32 33 34 35 36 37 38 39 40 41 42 43 44 45 46 47 48 49 50

000
ASUS41 KCLE 250602
RWRCLE
OHIO REGIONAL WEATHER ROUNDUP
NATIONAL WEATHER SERVICE CLEVELAND, OH
200 AM EDT MON MAY 25 2015

NOTE: "FAIR" INDICATES FEW OR NO CLOUDS BELOW 12,000 FEET WITH NO
SIGNIFICANT WEATHER AND/OR OBSTRUCTIONS TO VISIBILITY.

OHZ001>008-015>018-024>027-034-035-043-044-250700-
   NORTHWEST OHIO

CITY           SKY/WX    TMP DP  RH WIND       PRES   REMARKS
DEFIANCE       PTCLDY    71  52  50 S9        30.05F
FINDLAY        CLEAR     66  51  58 S10       30.07F
TOLEDO EXPRESS PTCLDY    68  50  52 S6        30.05F
TOLEDO EXEC    PTCLDY    64  50  60 S8        30.06F
LIMA           CLEAR     67  50  54 S7        30.09F
$$

OHZ009>014-019>023-028>033-038-089-250700-
   NORTHEAST OHIO

CITY           SKY/WX    TMP DP  RH WIND       PRES   REMARKS
CLE-HOPKINS    MOCLDY    65  51  60 S9        30.13F
CLE-LAKEFRONT  CLEAR     70  50  49 S13       30.11F
CUY CO. ARPT   NOT AVBL
LORAIN-ELYRIA  CLEAR     67  53  61 S12       30.11F
ASHTABULA      PTCLDY    64  48  56 S8        30.16F
AKRON-CANTON   PTCLDY    65  51  60 S8        30.16F
WOOSTER        CLEAR     58  50  75 SE3       30.15F
MANSFIELD      CLEAR     66  53  63 SE10      30.13F
YOUNGSTOWN     PTCLDY    59  45  59 SE7       30.17F
$$

OHZ042-051>053-060>062-070>072-077>081-250700-
  SOUTHWEST OHIO

CITY           SKY/WX    TMP DP  RH WIND       PRES   REMARKS
CINC-COVINGTON MOCLDY    70  54  56 S10       30.12F
CINC-LUNKEN    PTCLDY    62  56  80 CALM      30.12F
HAMILTON       MOCLDY    73  53  49 CALM      30.11F
DAYTON         PTCLDY    71  50  47 S10       30.11F
WRIGHT-PAT AFB PTCLDY    65  53  63 SE2       30.11F
DAYTON GENERAL PTCLDY    66  51  58 S7        30.11F
WILMINGTON     PTCLDY    67  51  56 S8        30.13F
$$

OHZ036-037-039>041-045>050-054>059-063>069-073>076-082>088-250700-
  CENTRAL AND SOUTHEAST OHIO

CITY           SKY/WX    TMP DP  RH WIND       PRES   REMARKS
COLUMBUS       PTCLDY    68  54  60 S5        30.13S
OSU AIRPORT    CLEAR     68  53  58 S7        30.13S
BOLTON FIELD   NOT AVBL
RICKENBACK AFB NOT AVBL
NEWARK         CLEAR     59  55  87 CALM      30.14F
MARION         CLEAR     66  53  63 S9        30.12F
LANCASTER      CLEAR     62  55  77 CALM      30.14F
ZANESVILLE     CLEAR     58  53  84 CALM      30.15F
NEW PHILLY     CLEAR     61  55  81 SE5       30.16F
$$


USA.gov is the U.S. government's official web portal to all federal, state and local government web resources and services.